Date String (YYYY-MM-DD hh:mm:ss) UTC,Instrument flags,absolute air pressure of the measurement (hPa),sample flow rate (lpm),inlet stack bypass flow (lpm),air temperature of the measurement (°C),ambient temperature measured by the external sensor (°C),aerosol sample conditioner tube jacket temperature (°C),OPC LED temperature (°C),internal box temperature (°C),relative humidity of the measurement (%),span deviation,mass concentration of particles derived from Lorenz-Mie calculation of OPC scattering (μg/m³),mass concentration of particles derived from Lorenz-Mie calculation of OPC scattering (μg/m³),mass concentration of particles derived from Lorenz-Mie calculation of OPC scattering (μg/m³)
DateTimeUTC,F1_M11,P_M11,Q1_M11,Q2_M11,T1_M11,T2_M11,T3_M11,T4_M11,T5_M11,U1_M11,ZSPAN_M11,X0_M11,X2_M11,X1_M11
2023-07-14 06:00:00,SystemResetWarning,0829.4,5.00,000.00,029.2,027.9,000.0,037.6,030.9,20.3,0000.0,0008.86,0003.67,0003.06
2023-07-14 06:01:00,SystemResetWarning,0829.3,5.00,000.00,029.2,028.0,000.0,037.6,030.9,20.3,0000.0,0008.80,0003.66,0003.06
2023-07-14 06:02:00,SystemResetWarning,0829.3,5.00,000.00,029.3,028.1,000.0,037.6,031.0,20.2,0000.0,0008.81,0003.67,0003.06
2023-07-14 06:03:00,SystemResetWarning,0829.3,5.00,000.00,029.3,028.2,000.0,037.7,031.0,20.0,0000.0,0009.01,0003.70,0003.08
2023-07-14 06:04:00,SystemResetWarning,0829.3,4.99,000.00,029.3,027.8,000.0,037.6,031.0,19.9,0000.0,0009.40,0003.72,0003.09
2023-07-14 06:05:00,SystemResetWarning,0829.4,4.99,000.00,029.3,026.0,000.0,037.5,030.8,19.7,0000.0,0009.94,0003.76,0003.09
2023-07-14 06:06:00,SystemResetWarning,0829.4,5.02,000.00,029.2,025.4,000.0,037.4,030.6,20.1,0000.0,0009.90,0003.79,0003.09
2023-07-14 06:07:00,SystemResetWarning,0829.4,5.00,000.00,029.2,025.6,000.0,037.5,030.5,20.1,0000.0,0010.06,0003.72,0003.09
2023-07-14 06:08:00,SystemResetWarning,0829.3,5.00,000.00,029.1,025.9,000.0,037.5,030.5,20.2,0000.0,0010.27,0003.76,0003.10
2023-07-14 06:09:00,SystemResetWarning,0829.4,5.00,000.00,029.1,026.3,000.0,037.5,030.5,20.3,0000.0,0010.56,0003.74,0003.10
2023-07-14 06:10:00,SystemResetWarning,0829.4,5.01,000.00,029.1,026.7,000.0,037.6,030.6,20.4,0000.0,0010.53,0003.69,0003.10
2023-07-14 06:11:00,SystemResetWarning,0829.3,5.00,000.00,029.1,027.0,000.0,037.6,030.7,20.3,0000.0,0010.02,0003.69,0003.09
2023-07-14 06:12:00,SystemResetWarning,0829.3,5.00,000.00,029.1,027.3,000.0,037.6,030.7,20.5,0000.0,0010.60,0003.72,0003.09
2023-07-14 06:13:00,SystemResetWarning,0829.4,5.00,000.00,029.2,027.5,000.0,037.6,030.8,20.3,0000.0,0010.66,0003.72,0003.07
2023-07-14 06:14:00,SystemResetWarning,0829.4,5.00,000.00,029.2,027.7,000.0,037.6,030.8,20.6,0000.0,0010.46,0003.69,0003.06
2023-07-14 06:15:00,SystemResetWarning,0829.4,5.00,000.00,029.2,027.8,000.0,037.6,030.9,20.5,0000.0,0010.75,0003.67,0003.04
2023-07-14 06:16:00,SystemResetWarning,0829.4,5.00,000.00,029.3,028.0,000.0,037.7,030.9,20.2,0000.0,0010.71,0003.62,0003.03
2023-07-14 06:17:00,SystemResetWarning,0829.4,5.00,000.00,029.3,028.1,000.0,037.7,031.0,20.2,0000.0,0010.29,0003.58,0003.03
2023-07-14 06:18:00,SystemResetWarning,0829.4,4.99,000.00,029.3,028.2,000.0,037.7,031.0,20.2,0000.0,0010.27,0003.61,0003.03
2023-07-14 06:19:00,SystemResetWarning,0829.3,4.98,000.00,029.4,027.8,000.0,037.7,031.0,20.1,0000.0,0009.94,0003.57,0003.03
2023-07-14 06:20:00,SystemResetWarning,0829.2,5.00,000.00,029.3,025.9,000.0,037.6,030.8,20.2,0000.0,0009.55,0003.56,0003.02
2023-07-14 06:21:00,SystemResetWarning,0829.2,5.01,000.00,029.3,025.3,000.0,037.5,030.6,20.2,0000.0,0009.43,0003.58,0003.02
2023-07-14 06:22:00,SystemResetWarning,0829.2,5.01,000.00,029.1,025.5,000.0,037.5,030.4,20.1,0000.0,0009.96,0003.59,0003.02
2023-07-14 06:23:00,SystemResetWarning,0829.2,5.00,000.00,029.1,025.9,000.0,037.6,030.4,20.0,0000.0,0009.58,0003.59,0003.03
2023-07-14 06:24:00,SystemResetWarning,0829.2,5.00,000.00,029.1,026.3,000.0,037.6,030.5,20.1,0000.0,0009.52,0003.57,0003.06
2023-07-14 06:25:00,SystemResetWarning,0829.2,5.00,000.00,029.1,026.7,000.0,037.6,030.6,20.5,0000.0,0009.94,0003.57,0003.06
2023-07-14 06:26:00,SystemResetWarning,0829.3,4.99,000.00,029.1,027.0,000.0,037.6,030.7,20.9,0000.0,0009.28,0003.56,0003.06
2023-07-14 06:27:00,SystemResetWarning,0829.3,5.00,000.00,029.1,027.2,000.0,037.6,030.7,20.9,0000.0,0009.26,0003.58,0003.08
2023-07-14 06:28:00,SystemResetWarning,0829.3,5.00,000.00,029.2,027.5,000.0,037.6,030.8,20.4,0000.0,0009.57,0003.59,0003.09
2023-07-14 06:29:00,SystemResetWarning,0829.3,5.00,000.00,029.2,027.6,000.0,037.6,030.8,20.1,0000.0,0009.33,0003.61,0003.09
2023-07-14 06:30:00,SystemResetWarning,0829.3,5.00,000.00,029.2,027.8,000.0,037.6,030.9,20.3,0000.0,0008.73,0003.59,0003.09
2023-07-14 06:31:00,SystemResetWarning,0829.3,4.99,000.00,029.3,027.9,000.0,037.7,030.9,20.1,0000.0,0009.74,0003.60,0003.09
2023-07-14 06:32:00,SystemResetWarning,0829.3,4.99,000.00,029.3,028.0,000.0,037.7,031.0,19.7,0000.0,0010.09,0003.58,0003.10
2023-07-14 06:33:00,SystemResetWarning,0829.3,4.99,000.00,029.3,028.1,000.0,037.7,031.0,19.7,0000.0,0009.63,0003.57,0003.10
2023-07-14 06:34:00,SystemResetWarning,0829.3,5.00,000.00,029.4,028.2,000.0,037.7,031.0,20.0,0000.0,0009.96,0003.58,0003.10
2023-07-14 06:35:00,SystemResetWarning,0829.4,5.00,000.00,029.4,028.3,000.0,037.8,031.1,19.9,0000.0,0010.13,0003.59,0003.10
2023-07-14 06:36:00,SystemResetWarning,0829.3,5.00,000.00,029.4,027.9,000.0,037.7,031.1,19.3,0000.0,0010.63,0003.64,0003.11
2023-07-14 06:37:00,SystemResetWarning,0829.3,5.00,000.00,029.4,026.1,000.0,037.6,030.9,19.7,0000.0,0011.51,0003.67,0003.12
2023-07-14 06:38:00,SystemResetWarning,0829.3,5.01,000.00,029.3,025.4,000.0,037.5,030.7,19.8,0000.0,0012.14,0003.65,0003.11
2023-07-14 06:39:00,SystemResetWarning,0829.2,5.01,000.00,029.2,025.5,000.0,037.6,030.5,19.7,0000.0,0012.17,0003.64,0003.11
2023-07-14 06:40:00,SystemResetWarning,0829.2,5.00,000.00,029.2,025.9,000.0,037.6,030.5,19.5,0000.0,0012.17,0003.63,0003.10
2023-07-14 06:41:00,SystemResetWarning,0829.2,5.00,000.00,029.2,026.3,000.0,037.6,030.6,19.2,0000.0,0012.40,0003.63,0003.09
2023-07-14 06:42:00,SystemResetWarning,0829.2,5.01,000.00,029.2,026.6,000.0,037.6,030.6,19.2,0000.0,0011.98,0003.60,0003.07
2023-07-14 06:43:00,SystemResetWarning,0829.2,4.99,000.00,029.2,027.0,000.0,037.7,030.7,19.3,0000.0,0011.59,0003.59,0003.04
2023-07-14 06:44:00,SystemResetWarning,0829.2,4.99,000.00,029.2,027.2,000.0,037.7,030.7,19.5,0000.0,0011.55,0003.59,0003.03
2023-07-14 06:45:00,SystemResetWarning,0829.2,5.00,000.00,029.2,027.5,000.0,037.7,030.8,19.6,0000.0,0011.04,0003.57,0003.00
2023-07-14 06:46:00,SystemResetWarning,0829.3,5.00,000.00,029.2,027.6,000.0,037.7,030.8,19.3,0000.0,0010.93,0003.54,0002.97
2023-07-14 06:47:00,SystemResetWarning,0829.2,5.01,000.00,029.3,027.8,000.0,037.7,030.9,19.3,0000.0,0010.36,0003.51,0002.92
2023-07-14 06:48:00,SystemResetWarning,0829.2,5.01,000.00,029.3,028.0,000.0,037.7,030.9,19.2,0000.0,0009.19,0003.47,0002.88
2023-07-14 06:49:00,SystemResetWarning,0829.3,5.00,000.00,029.3,028.1,000.0,037.7,031.0,19.3,0000.0,0008.45,0003.46,0002.86
2023-07-14 06:50:00,SystemResetWarning,0829.3,4.98,000.00,029.4,028.2,000.0,037.8,031.0,19.0,0000.0,0008.25,0003.45,0002.83
2023-07-14 06:51:00,SystemResetWarning,0829.3,5.01,000.00,029.4,028.3,000.0,037.8,031.1,18.7,0000.0,0009.17,0003.43,0002.80
2023-07-14 06:52:00,SystemResetWarning,0829.3,5.01,000.00,029.4,028.3,000.0,037.8,031.1,18.5,0000.0,0009.72,0003.40,0002.79
2023-07-14 06:53:00,SystemResetWarning,0829.2,5.00,000.00,029.5,028.1,000.0,037.8,031.1,18.5,0000.0,0009.52,0003.43,0002.78
2023-07-14 06:54:00,SystemResetWarning,0829.2,4.98,000.00,029.5,026.2,000.0,037.7,030.9,18.6,0000.0,0009.82,0003.46,0002.78
2023-07-14 06:55:00,SystemResetWarning,0829.1,5.02,000.00,029.4,025.4,000.0,037.6,030.8,18.4,0000.0,0010.04,0003.46,0002.77
2023-07-14 06:56:00,SystemResetWarning,0829.1,5.01,000.00,029.3,025.5,000.0,037.6,030.5,18.5,0000.0,0009.83,0003.43,0002.74
2023-07-14 06:57:00,SystemResetWarning,0829.1,5.00,000.00,029.2,025.9,000.0,037.6,030.5,18.5,0000.0,0009.89,0003.42,0002.73
2023-07-14 06:58:00,SystemResetWarning,0829.1,5.00,000.00,029.2,026.3,000.0,037.7,030.6,18.4,0000.0,0010.32,0003.40,0002.71
2023-07-14 06:59:00,SystemResetWarning,0829.1,5.01,000.00,029.2,026.6,000.0,037.7,030.7,18.6,0000.0,0010.65,0003.39,0002.70
